Ridgeville, SC

11:25 PM EDT on August 24, 2016 (GMT -0400)
Summerville

Weather History for KDYB - March, 2013

Change the Weather History Date:

Wednesday, March 13, 2013

  Actual Average (KCHS) Record (KCHS)
Temperature  
Mean Temperature 54 °F 58 °F  
Max Temperature 66 °F 69 °F 88 °F (1955)
Min Temperature 41 °F 46 °F 22 °F (1998)
Degree Days  
Heating Degree Days 12 8  
Month to date heating degree days 124  
Since 1 July heating degree days 1760  
Cooling Degree Days 0 1  
Month to date cooling degree days 11  
Year to date cooling degree days 18  
Growing Degree Days 4 (Base 50)    
Moisture  
Dew Point 34 °F    
Average Humidity 51    
Maximum Humidity 100    
Minimum Humidity 26    
Precipitation  
Precipitation 0.00 in 0.12 in 1.85 in (1980)
Month to date precipitation 1.52  
Year to date precipitation 8.19  
Sea Level Pressure  
Sea Level Pressure 30.06 in    
Wind  
Wind Speed 6 mph (WNW)    
Max Wind Speed 18 mph    
Max Gust Speed 24 mph    
Visibility 10 miles    
Events      
T = Trace of Precipitation, MM = Missing Value Source: NWS Daily Summary

Daily Weather History Graph

Daily Weather History Graph

Search for Another Location

Airport or City:

Trip Planner

Search our weather history database for the weather conditions in past years. The results will help you decide how hot, cold, wet, or windy it might be!

Date:

Astronomy

Mar. 13, 2013 Rise Set
Actual Time 7:33 AM EDT 7:27 PM EDT
Civil Twilight 7:09 AM EDT 7:52 PM EDT
Nautical Twilight 6:40 AM EDT 8:21 PM EDT
Astronomical Twilight 6:11 AM EDT 8:49 PM EDT
Moon 8:20 AM EDT (3/13) 9:32 PM EDT (3/13)
Length of Visible Light 12h 43m
Length of Day
11h 53m
Waxing Crescent, 4% of the Moon is Illuminated
Mar 13
Waxing Crescent
Mar 19
First Quarter
Mar 27
Full
Apr 3
Last Quarter
Apr 10
New

Hourly Weather History & Observations

Time (EDT) Temp. Windchill Dew Point Humidity Pressure Visibility Wind Dir Wind Speed Gust Speed Precip Events Conditions
12:15 AM 50.0 °F - 44.6 °F 82% 29.96 in 10.0 mi West 4.6 mph - N/A   Clear
12:35 AM 50.0 °F - 44.6 °F 82% 29.96 in 10.0 mi WSW 4.6 mph - N/A   Clear
12:55 AM 50.0 °F - 44.6 °F 82% 29.97 in 10.0 mi West 4.6 mph - N/A   Clear
1:35 AM 50.0 °F - 42.8 °F 76% 29.98 in 10.0 mi West 4.6 mph - N/A   Clear
1:55 AM 51.8 °F - 41.0 °F 67% 29.99 in 10.0 mi WNW 4.6 mph - N/A   Clear
2:15 AM 51.8 °F - 41.0 °F 67% 29.99 in 10.0 mi WNW 4.6 mph - N/A   Clear
2:35 AM 51.8 °F - 41.0 °F 67% 29.99 in 10.0 mi WNW 4.6 mph - N/A   Clear
2:55 AM 51.8 °F - 41.0 °F 67% 30.00 in 10.0 mi NW 3.5 mph - N/A   Clear
3:15 AM 50.0 °F - 39.2 °F 66% 30.00 in 10.0 mi NW 4.6 mph - N/A   Clear
3:35 AM 50.0 °F - 39.2 °F 66% 30.00 in 10.0 mi NNW 3.5 mph - N/A   Clear
3:55 AM 50.0 °F - 39.2 °F 66% 30.01 in 10.0 mi NNW 3.5 mph - N/A   Clear
4:15 AM 50.0 °F - 39.2 °F 66% 30.01 in 10.0 mi Calm Calm - N/A   Clear
4:35 AM 48.2 °F - 41.0 °F 76% 30.02 in 10.0 mi Calm Calm - N/A   Clear
4:55 AM 44.6 °F 43.1 °F 41.0 °F 87% 30.03 in 10.0 mi NW 3.5 mph - N/A   Clear
5:15 AM 44.6 °F - 41.0 °F 87% 30.04 in 10.0 mi Calm Calm - N/A   Clear
5:35 AM 42.8 °F - 41.0 °F 93% 30.05 in 10.0 mi Calm Calm - N/A   Clear
5:55 AM 41.0 °F 39.0 °F 39.2 °F 93% 30.05 in 10.0 mi NW 3.5 mph - N/A   Clear
6:15 AM 41.0 °F 39.0 °F 39.2 °F 93% 30.06 in 10.0 mi WNW 3.5 mph - N/A   Clear
6:35 AM 41.0 °F - 41.0 °F 100% 30.07 in 10.0 mi Calm Calm - N/A   Clear
6:55 AM 41.0 °F 39.0 °F 39.2 °F 93% 30.08 in 10.0 mi WNW 3.5 mph - N/A   Clear
7:15 AM 41.0 °F 39.0 °F 37.4 °F 87% 30.09 in 10.0 mi WNW 3.5 mph - N/A   Clear
7:35 AM 42.8 °F - 37.4 °F 81% 30.10 in 10.0 mi Calm Calm - N/A   Clear
7:55 AM 41.0 °F 39.0 °F 37.4 °F 87% 30.11 in 10.0 mi West 3.5 mph - N/A   Clear
8:15 AM 42.8 °F 41.1 °F 37.4 °F 81% 30.12 in 10.0 mi WNW 3.5 mph - N/A   Clear
8:35 AM 44.6 °F 43.1 °F 37.4 °F 76% 30.12 in 10.0 mi WNW 3.5 mph - N/A   Clear
8:55 AM 46.4 °F 43.5 °F 37.4 °F 71% 30.13 in 10.0 mi WNW 5.8 mph - N/A   Clear
9:15 AM 50.0 °F - 35.6 °F 58% 30.13 in 10.0 mi WNW 4.6 mph - N/A   Clear
9:35 AM 50.0 °F - 35.6 °F 58% 30.14 in 10.0 mi NW 9.2 mph - N/A   Clear
9:55 AM 51.8 °F - 35.6 °F 54% 30.14 in 10.0 mi NW 4.6 mph - N/A   Clear
10:15 AM 53.6 °F - 35.6 °F 51% 30.14 in 10.0 mi NW 4.6 mph - N/A   Clear
10:35 AM 55.4 °F - 35.6 °F 47% 30.14 in 10.0 mi NW 5.8 mph - N/A   Clear
10:55 AM 55.4 °F - 33.8 °F 44% 30.14 in 10.0 mi North 5.8 mph - N/A   Clear
11:15 AM 59.0 °F - 33.8 °F 39% 30.14 in 10.0 mi West 8.1 mph - N/A   Clear
11:35 AM 59.0 °F - 32.0 °F 36% 30.13 in 10.0 mi WNW 6.9 mph 16.1 mph N/A   Clear
11:55 AM 60.8 °F - 32.0 °F 34% 30.12 in 10.0 mi West 16.1 mph 21.9 mph N/A   Clear
12:15 PM 62.6 °F - 30.2 °F 30% 30.12 in 10.0 mi WNW 13.8 mph 18.4 mph N/A   Clear
12:35 PM 62.6 °F - 30.2 °F 30% 30.10 in 10.0 mi WNW 8.1 mph 18.4 mph N/A   Scattered Clouds
12:55 PM 62.6 °F - 28.4 °F 27% 30.10 in 10.0 mi WNW 10.4 mph 20.7 mph N/A   Scattered Clouds
1:15 PM 62.6 °F - 28.4 °F 27% 30.09 in 10.0 mi West 10.4 mph 23.0 mph N/A   Scattered Clouds
1:35 PM 64.4 °F - 30.2 °F 28% 30.08 in 10.0 mi WNW 12.7 mph 20.7 mph N/A   Clear
1:55 PM 62.6 °F - 28.4 °F 27% 30.06 in 10.0 mi WNW 8.1 mph 21.9 mph N/A   Clear
2:15 PM 64.4 °F - 30.2 °F 28% 30.05 in 10.0 mi West 15.0 mph 19.6 mph N/A   Clear
2:55 PM 64.4 °F - 30.2 °F 28% 30.03 in 10.0 mi WSW 11.5 mph 24.2 mph N/A   Clear
3:15 PM 64.4 °F - 30.2 °F 28% 30.02 in 10.0 mi West 12.7 mph 19.6 mph N/A   Clear
3:35 PM 66.2 °F - 30.2 °F 26% 30.01 in 10.0 mi WSW 15.0 mph 20.7 mph N/A   Clear
3:55 PM 64.4 °F - 30.2 °F 28% 30.01 in 10.0 mi WSW 10.4 mph 23.0 mph N/A   Clear
4:15 PM 64.4 °F - 30.2 °F 28% 30.00 in 10.0 mi West 12.7 mph 18.4 mph N/A   Clear
4:35 PM 64.4 °F - 30.2 °F 28% 30.00 in 10.0 mi West 15.0 mph 19.6 mph N/A   Clear
4:55 PM 64.4 °F - 32.0 °F 30% 30.00 in 10.0 mi WSW 18.4 mph 21.9 mph N/A   Clear
5:15 PM 64.4 °F - 30.2 °F 28% 30.00 in 10.0 mi West 13.8 mph 24.2 mph N/A   Clear
5:35 PM 64.4 °F - 30.2 °F 28% 30.00 in 10.0 mi West 11.5 mph 20.7 mph N/A   Clear
5:55 PM 62.6 °F - 30.2 °F 30% 30.00 in 10.0 mi West 17.3 mph 23.0 mph N/A   Clear
6:15 PM 62.6 °F - 30.2 °F 30% 30.00 in 10.0 mi West 12.7 mph 20.7 mph N/A   Clear
6:35 PM 62.6 °F - 30.2 °F 30% 30.00 in 10.0 mi West 12.7 mph - N/A   Clear
6:55 PM 60.8 °F - 28.4 °F 29% 30.01 in 10.0 mi West 15.0 mph 20.7 mph N/A   Clear
7:15 PM 60.8 °F - 28.4 °F 29% 30.02 in 10.0 mi West 11.5 mph 18.4 mph N/A   Clear
7:35 PM 59.0 °F - 28.4 °F 31% 30.02 in 10.0 mi West 9.2 mph - N/A   Clear
7:55 PM 59.0 °F - 28.4 °F 31% 30.03 in 10.0 mi West 8.1 mph - N/A   Clear
8:15 PM 57.2 °F - 28.4 °F 33% 30.04 in 10.0 mi West 6.9 mph - N/A   Clear
8:35 PM 55.4 °F - 28.4 °F 36% 30.05 in 10.0 mi NW 8.1 mph - N/A   Clear
8:55 PM 55.4 °F - 28.4 °F 36% 30.06 in 10.0 mi WNW 6.9 mph - N/A   Clear
9:15 PM 55.4 °F - 28.4 °F 36% 30.07 in 10.0 mi WNW 8.1 mph - N/A   Clear
9:35 PM 53.6 °F - 28.4 °F 38% 30.08 in 10.0 mi WNW 6.9 mph - N/A   Clear
9:55 PM 53.6 °F - 28.4 °F 38% 30.09 in 10.0 mi WNW 9.2 mph - N/A   Clear
10:15 PM 53.6 °F - 28.4 °F 38% 30.09 in 10.0 mi WNW 9.2 mph - N/A   Clear
10:35 PM 51.8 °F - 26.6 °F 38% 30.10 in 10.0 mi WNW 10.4 mph 16.1 mph N/A   Clear
10:55 PM 51.8 °F - 26.6 °F 38% 30.11 in 10.0 mi WNW 8.1 mph 17.3 mph N/A   Clear
11:15 PM 51.8 °F - 26.6 °F 38% 30.11 in 10.0 mi WNW 8.1 mph - N/A   Clear
11:35 PM 51.8 °F - 26.6 °F 38% 30.12 in 10.0 mi WNW 8.1 mph - N/A   Clear
11:55 PM 50.0 °F - 26.6 °F 40% 30.12 in 10.0 mi NW 8.1 mph - N/A   Clear